Погода в Кромском

Россия / Орловская область     52°38′07″N   35°45′51″E
темп.,
°C
ветер,
м/с
пор.,
м/с
влажн.,
%
обл.,
%
осадки,
мм/ч
давл.,
гПа
погр.,
м
28 ноября, вс
вс2800:00+5ю6139787 0.0 1002399
03:00+5ююз51196100 0.1 1003449
06:00+4юз38936 0.0 1004267
09:00+2юз37935 0.0 1006164
12:00+4зюз357455 0.0 1007283
15:00+5юз237469 0.0 1008129
18:00+3ююв3485100 0.0 100849
21:00+3юв41096100 0.0 1008212
29 ноября, пн
пн2900:00+3юв41197100 0.0 1007252
03:00+3юв41096100 0.0 1005227
06:00+4вюв41097100 0.0 1002210
09:00+5всв31099100 0.6 1000250
12:00+5юв3899100 0.1 997268
15:00+6ю41098100 0.1 995331
18:00+7ююв51296100 0.0 992385
21:00+6вюв51096100 0.1 987309
30 ноября, вт
вт3000:00+7вюв5998100 2.6 980263
03:00+7зюз5998100 4.3 975323
06:00+6зюз111594100 4.3 9781140
09:00+1зюз132296100 9.3 9841087
12:00+1зюз122085100 1.5 9871097
15:00+1зюз111783100 1.5 9891086
18:00+1юз91587100 0.0 9901328
21:00−1юз8158377 0.1 991778
1 декабря, ср
ср100:00−1зюз8138681 0.1 9901010
03:00−2зюз8139188 0.1 992973
06:00−2з81392100 0.5 9921046
09:00−3з81293100 1.1 9941002
12:00−3з81192100 1.1 996939
15:00−3з81283100 1.3 998869
18:00−4з6128683 0.0 1000685
21:00−5з6119083 0.0 1002575
2 декабря, чт
чт200:00−6з5109292 0.0 1004435
03:00−6юз379598 0.0 1004255
06:00−5ююз4992100 0.0 1005291
09:00−3ю61389100 0.0 1004519
12:00−1ююз81696100 1.1 1002684
15:00+1юз71597100 1.7 1002622
18:00+2юз71490100 0.1 1003493
21:00+1юз61590100 0.1 1004431